Weather History for KJKA - April, 2014

Change the Weather History Date:

Sunday, April 6, 2014

  Actual Average (KPNS) Record (KPNS)
Temperature  
Mean Temperature 64 °F 64 °F  
Max Temperature 70 °F 74 °F 84 °F (1956)
Min Temperature 59 °F 55 °F 37 °F (1891)
Degree Days  
Heating Degree Days 0 3  
Month to date heating degree days 18  
Since 1 July heating degree days 1502  
Cooling Degree Days 0 2  
Month to date cooling degree days 12  
Year to date cooling degree days 59  
Growing Degree Days 14 (Base 50)    
Moisture  
Dew Point 65 °F    
Average Humidity 98    
Maximum Humidity 100    
Minimum Humidity 91    
Precipitation  
Precipitation 0.01 in 0.15 in 6.87 in (2005)
Month to date precipitation 0.94  
Year to date precipitation 16.44  
Snow  
Snow 0.00 in 0.00 in - ()
Month to date snowfall 0.0  
Since 1 July snowfall 0.0  
Snow Depth -    
Sea Level Pressure  
Sea Level Pressure 29.88 in    
Wind  
Wind Speed 6 mph (ESE)    
Max Wind Speed 15 mph    
Max Gust Speed 23 mph    
Visibility 5 miles    
Events Fog , Rain    
T = Trace of Precipitation, MM = Missing Value Source: NWS Daily Summary

Daily Weather History Graph

Daily Weather History Graph

Search for Another Location

Airport or City:

Trip Planner

Search our weather history database for the weather conditions in past years. The results will help you decide how hot, cold, wet, or windy it might be!

Date:

Astronomy

Apr. 06, 2014 Rise Set
Actual Time 6:33 AM CDT 7:12 PM CDT
Civil Twilight 6:09 AM CDT 7:36 PM CDT
Nautical Twilight 5:41 AM CDT 8:05 PM CDT
Astronomical Twilight 5:12 AM CDT 8:34 PM CDT
Moon 11:47 AM CDT (4/6) 12:55 AM CDT (4/6)
Length of Visible Light 13h 27m
Length of Day
12h 38m
Waxing Crescent, 44% of the Moon is Illuminated
Apr 6
Waxing Crescent
Apr 7
First Quarter
Apr 15
Full
Apr 22
Last Quarter
Apr 29
New

Hourly Weather History & Observations

Time (CDT) Temp. Dew Point Humidity Pressure Visibility Wind Dir Wind Speed Gust Speed Precip Events Conditions
12:15 AM 60.6 °F 60.1 °F 98% 29.99 in 7.0 mi Calm Calm - N/A   Overcast
12:35 AM 60.8 °F 60.4 °F 99% 29.98 in 7.0 mi Calm Calm - N/A   Overcast
12:55 AM 61.0 °F 60.8 °F 99% 29.98 in 10.0 mi Calm Calm - N/A   Overcast
1:15 AM 61.2 °F 60.8 °F 99% 29.97 in 10.0 mi ENE 3.5 mph - N/A   Overcast
1:35 AM 61.5 °F 61.0 °F 98% 29.96 in 7.0 mi East 4.6 mph - N/A   Overcast
1:55 AM 61.7 °F 61.5 °F 99% 29.95 in 7.0 mi Calm Calm - N/A   Overcast
2:15 AM 62.6 °F 62.1 °F 98% 29.94 in 7.0 mi East 4.6 mph - N/A   Overcast
2:35 AM 63.5 °F 63.0 °F 98% 29.93 in 7.0 mi ESE 6.9 mph - N/A   Overcast
2:55 AM 64.4 °F 63.7 °F 98% 29.91 in 10.0 mi ESE 10.4 mph - N/A   Overcast
3:15 AM 64.4 °F 64.0 °F 99% 29.89 in 10.0 mi ESE 9.2 mph - N/A   Overcast
3:35 AM 64.8 °F 64.4 °F 99% 29.90 in 7.0 mi East 8.1 mph - N/A   Overcast
3:55 AM 65.3 °F 64.9 °F 99% 29.90 in 7.0 mi ESE 9.2 mph - N/A   Overcast
4:15 AM 65.7 °F 65.3 °F 99% 29.90 in 5.0 mi ESE 8.1 mph - N/A   Overcast
4:35 AM 65.8 °F 65.5 °F 99% 29.88 in 5.0 mi ESE 10.4 mph - N/A   Overcast
4:55 AM 65.7 °F 65.5 °F 99% 29.88 in 2.0 mi ESE 8.1 mph - N/A   Overcast
5:15 AM 65.7 °F 65.7 °F 100% 29.88 in 0.8 mi ESE 8.1 mph - N/A   Overcast
5:35 AM 66.2 °F 66.2 °F 100% 29.88 in 0.5 mi SE 6.9 mph - N/A Fog Fog
5:55 AM 66.2 °F 66.2 °F 100% 29.89 in 0.5 mi SE 6.9 mph - N/A Fog Fog
6:15 AM 66.2 °F 66.2 °F 100% 29.90 in 0.5 mi SE 4.6 mph - N/A Fog Fog
6:35 AM 66.4 °F 66.4 °F 100% 29.92 in 0.2 mi SE 3.5 mph - N/A Fog Fog
6:55 AM 66.6 °F 66.6 °F 100% 29.93 in 0.2 mi SE 3.5 mph - N/A Fog Fog
7:15 AM 66.7 °F 66.7 °F 100% 29.93 in 0.2 mi SSE 3.5 mph - N/A Fog Fog
7:35 AM 67.3 °F 67.3 °F 100% 29.93 in 0.2 mi South 5.8 mph - N/A Fog Fog
7:55 AM 67.3 °F 67.3 °F 100% 29.93 in 0.2 mi South 6.9 mph - N/A Fog Fog
8:15 AM 67.6 °F 67.6 °F 100% 29.93 in 0.2 mi South 6.9 mph - N/A Fog Fog
8:35 AM 68.0 °F 68.0 °F 100% 29.93 in 0.2 mi South 8.1 mph - N/A Fog Fog
8:55 AM 68.4 °F 68.4 °F 100% 29.93 in 0.2 mi South 5.8 mph - N/A Fog Fog
9:15 AM 68.4 °F 68.4 °F 100% 29.93 in 0.2 mi South 8.1 mph - N/A Fog Fog
9:35 AM 67.5 °F 67.5 °F 100% 29.94 in 0.2 mi North 11.5 mph - N/A Fog Fog
9:55 AM 61.0 °F 60.6 °F 99% 29.94 in 2.5 mi North 11.5 mph 16.1 mph N/A   Drizzle
10:15 AM 59.7 °F 59.4 °F 99% 29.94 in 2.5 mi North 8.1 mph - N/A   Light Drizzle
10:35 AM 59.9 °F 59.4 °F 98% 29.95 in 4.0 mi NNE 5.8 mph - N/A   Overcast
10:55 AM 59.5 °F 59.4 °F 99% 29.94 in 3.0 mi NNE 8.1 mph - N/A   Overcast
11:15 AM 59.7 °F 59.4 °F 99% 29.95 in 4.0 mi NNE 8.1 mph - N/A   Overcast
11:35 AM 59.5 °F 59.2 °F 99% 29.95 in 4.0 mi NNE 5.8 mph - N/A   Overcast
11:55 AM 60.1 °F 59.5 °F 98% 29.94 in 7.0 mi NNE 4.6 mph - N/A   Overcast
12:15 PM 60.8 °F 60.3 °F 98% 29.94 in 10.0 mi NE 5.8 mph - N/A   Overcast
12:35 PM 61.2 °F 60.3 °F 97% 29.94 in 10.0 mi NNE 5.8 mph - N/A   Overcast
12:55 PM 62.1 °F 61.2 °F 97% 29.94 in 10.0 mi NE 4.6 mph - N/A   Overcast
1:15 PM 62.8 °F 61.7 °F 96% 29.92 in 10.0 mi ENE 5.8 mph - N/A   Overcast
1:35 PM 63.7 °F 62.4 °F 96% 29.91 in 10.0 mi ENE 6.9 mph - N/A   Overcast
1:55 PM 64.4 °F 63.1 °F 96% 29.90 in 10.0 mi NE 8.1 mph - N/A   Overcast
2:15 PM 65.3 °F 63.9 °F 95% 29.89 in 10.0 mi East 4.6 mph - N/A   Overcast
2:35 PM 66.6 °F 64.9 °F 95% 29.88 in 10.0 mi East 4.6 mph - N/A   Overcast
2:55 PM 67.1 °F 64.9 °F 93% 29.86 in 10.0 mi East 9.2 mph - N/A   Overcast
3:15 PM 67.5 °F 65.3 °F 93% 29.84 in 10.0 mi East 10.4 mph - N/A   Overcast
3:35 PM 68.9 °F 66.2 °F 91% 29.84 in 10.0 mi East 9.2 mph - N/A   Overcast
3:55 PM 68.9 °F 66.7 °F 93% 29.83 in 10.0 mi East 8.1 mph - N/A   Overcast
4:15 PM 68.9 °F 67.3 °F 95% 29.82 in 7.0 mi East 9.2 mph - N/A   Overcast
4:35 PM 68.7 °F 67.5 °F 96% 29.81 in 5.0 mi East 6.9 mph - N/A   Overcast
4:55 PM 68.9 °F 68.0 °F 97% 29.81 in 3.0 mi East 8.1 mph - 0.01 in Rain Light Rain
5:15 PM 69.1 °F 68.9 °F 99% 29.81 in 3.0 mi ESE 5.8 mph - N/A   Overcast
5:35 PM 69.6 °F 69.1 °F 98% 29.80 in 3.0 mi SE 5.8 mph - N/A   Overcast
5:55 PM 69.4 °F 68.9 °F 98% 29.80 in 3.0 mi SE 9.2 mph - N/A   Overcast
6:15 PM 69.3 °F 68.9 °F 99% 29.79 in 4.0 mi SE 6.9 mph - N/A   Overcast
6:35 PM 69.1 °F 68.5 °F 98% 29.80 in 4.0 mi SSE 9.2 mph - N/A   Overcast
6:55 PM 68.9 °F 68.4 °F 98% 29.79 in 4.0 mi SSE 10.4 mph 16.1 mph N/A   Overcast
7:15 PM 69.1 °F 68.5 °F 98% 29.80 in 4.0 mi SSE 11.5 mph 18.4 mph N/A   Overcast
7:35 PM 68.9 °F 68.4 °F 98% 29.79 in 5.0 mi SSE 12.7 mph 20.7 mph N/A   Overcast
7:55 PM 68.9 °F 68.4 °F 98% 29.79 in 5.0 mi SSE 9.2 mph - N/A   Overcast
8:15 PM 68.9 °F 68.2 °F 98% 29.79 in 5.0 mi SSE 10.4 mph 16.1 mph N/A   Overcast
8:35 PM 68.9 °F 68.2 °F 98% 29.79 in 5.0 mi SSE 11.5 mph 17.3 mph N/A   Overcast
8:55 PM 68.9 °F 68.2 °F 98% 29.80 in 5.0 mi SSE 11.5 mph - N/A   Overcast
9:15 PM 68.9 °F 68.4 °F 98% 29.80 in 5.0 mi SSE 11.5 mph 19.6 mph N/A   Overcast
9:35 PM 69.4 °F 68.9 °F 98% 29.80 in 5.0 mi SSE 15.0 mph 20.7 mph N/A   Overcast
9:55 PM 69.1 °F 68.5 °F 98% 29.81 in 5.0 mi SSE 11.5 mph 17.3 mph N/A   Overcast
10:15 PM 69.6 °F 68.9 °F 98% 29.81 in 5.0 mi SSE 11.5 mph 17.3 mph N/A   Overcast
10:35 PM 69.8 °F 69.1 °F 98% 29.81 in 5.0 mi SSE 11.5 mph 17.3 mph N/A   Overcast
10:55 PM 70.0 °F 69.3 °F 98% 29.81 in 7.0 mi SSE 12.7 mph 19.6 mph N/A   Overcast
11:15 PM 69.8 °F 69.3 °F 98% 29.80 in 5.0 mi SSE 11.5 mph 21.9 mph N/A   Overcast
11:35 PM 69.6 °F 69.1 °F 98% 29.79 in 5.0 mi SSE 12.7 mph 21.9 mph N/A   Overcast
11:55 PM 69.8 °F 69.1 °F 98% 29.78 in 5.0 mi SSE 15.0 mph 23.0 mph N/A   Overcast